"Pseudo-MPEC" for P20OVhF

Created 2019 Jun 14 2:10:11 UT using Find_Orb

Click here for an explanation of pseudo-MPECs

 
 Astrometry: 
     P20OVhF  C2019 06 015wC?M:ZC(9PBlsBfO)/U2m!u-b88V'6SF=H[\kcOB_+hX'T.0=cBF51
     P20OVhF  C2019 06 01d=qZ0067D8qls-76\YuAGSHU;XrXU7wL.W\rHNLF@Dl9Q))hc$/dF51
     P20OVhF  C2019 06 0112t'DF_y]6FnpjE0i.#t7,bTdLsP8mW\mAstrometry6QSpQ!2IqF51
     P20OVhF  C2019 06 01Wn3A]uyXf_tAJnredacted;8aWO.Me9Z5j[G:,$.?FnyX[^,Vb-JF51
     P20OVhF  C2019 06 02bE1sNs!93[N#qPq#.Zw.ka8LFD(.+RKQ=x%7Ss$5!',+y/:Y,9RdF51
     P20OVhF  C2019 06 02+XdO;r[GwfePEV)rZN;$YnhMMNP@:K9$UTPclick6!(V@XUPhereF51
     P20OVhF  C2019 06 02aNdZV85tc/mBiaH(?#\Im^QI$/$/K,s+byCRN$oP3bLV#N_BQukDF51
     P20OVhF  C2019 06 02YCG8,GW2@bOt`'HdPRQ8X-;-F78B(]U%^m2dniQi,Z=la?07q;))F51
     P20OVhF  C2019 06 10Hx6o5)kq@FQ$ncCb,t+l.H8Ig:8=CB@u2id;Z5[f:t)]7j1B\?kOF52
     P20OVhF  C2019 06 10h2Q(Ko%miYXu8S0@JmIa*9rLPkq%3*V;U%tnN[Ll0FA]@E*i-4]YF52
     P20OVhF  C2019 06 10`3KXl^HTq(Nsv#T#IeAI`Xfori+b38PJL77wI)[?+563cdu=gx\bF52
     P20OVhF  C2019 06 10HBuk(7Xth(FY?C(Y!.H7A@_;q:.iPd-2!f-CHSexplanationhQ^F52

Station data:
(F51) Pan-STARRS 1, Haleakala  (N20.707235 W156.255910)  US/Hawaii.
   Observers N. Primak, A. Schultz, S. Watters, J. Thiel, T. Goggia. Measurer
   PS1 Science Consortium. 1.8-m Ritchey-Chrétien + CCD.
(F52) Pan-STARRS 2, Haleakala  (N20.707384 W156.255910)  US/Hawaii. 1.8-m
   Ritchey-Chrétien + CCD.

Orbital elements:  P20OVhF
   Perihelion 2022 Jan 30.293450 +/- 208 TT =  7:02:34 (JD 2459609.793450)
Epoch 2019 Jun 10.0 TT = JDT 2458644.5   Ju: 0.0623           AutoNEOCP
M 278.05747633 +/- 18               (J2000 ecliptic)
n   0.08488871 +/- 0.00314          Peri.  129.43759 +/- 21
a   5.12746532 +/- 0.126            Node   277.26789 +/- 0.52
e   0.0512513 +/- 0.0505            Incl.   38.77036 +/- 0.35
P  11.61                   H 13.9   G  0.15   U  8.9  
q 4.86467591 +/- 0.306    Q 5.39025473 +/- 0.269
From 12 observations 2019 June 1-10; mean residual 0".09
Residuals in arcseconds: 
190601 F51  .01+  .03+    190602 F51  .07-  .01+    190610 F52  .05+  .20+    
190601 F51  .01+  .01-    190602 F51  .09-  .08-    190610 F52  .21-  .16-    
190601 F51  .02+  .01-    190602 F51  .01-  .05-    190610 F52  .01-  .02-    
190601 F51  .04-  .01-    190602 F51  .17+  .12+    190610 F52  .17+  .02-    

Ephemerides (geocentric):
Date (UTC) HH   RA              Dec         delta   r     elong  mag " sig PA
---- -- -- --  -------------   -----------  ------ ------ -----  --- ---- ---
2019 06 14 02  21 06 37.541   +12 35 28.98  4.5819 5.1024 115.5 21.4 1.74  78
2019 06 14 03  21 06 36.948   +12 35 46.30  4.5814 5.1024 115.6 21.4 1.77  78
2019 06 14 04  21 06 36.353   +12 36 03.61  4.5809 5.1023 115.6 21.4 1.80  78
2019 06 14 05  21 06 35.756   +12 36 20.92  4.5803 5.1023 115.6 21.4 1.82  78
2019 06 14 06  21 06 35.159   +12 36 38.21  4.5798 5.1023 115.7 21.4 1.85  78
2019 06 14 07  21 06 34.560   +12 36 55.50  4.5793 5.1023 115.7 21.4 1.88  78
2019 06 14 08  21 06 33.960   +12 37 12.78  4.5788 5.1023 115.7 21.4 1.91  78
2019 06 14 09  21 06 33.358   +12 37 30.06  4.5783 5.1023 115.8 21.4 1.93  78
2019 06 14 10  21 06 32.756   +12 37 47.32  4.5778 5.1022 115.8 21.4 1.96  78
2019 06 14 11  21 06 32.152   +12 38 04.58  4.5773 5.1022 115.8 21.4 1.99  78
2019 06 14 12  21 06 31.546   +12 38 21.84  4.5768 5.1022 115.9 21.4 2.02  78
2019 06 14 13  21 06 30.940   +12 38 39.08  4.5763 5.1022 115.9 21.4 2.05  78
2019 06 14 14  21 06 30.332   +12 38 56.32  4.5758 5.1022 115.9 21.4 2.07  78
2019 06 14 15  21 06 29.723   +12 39 13.55  4.5753 5.1022 116.0 21.4 2.10  78
2019 06 14 16  21 06 29.112   +12 39 30.77  4.5748 5.1021 116.0 21.4 2.13  78
2019 06 14 17  21 06 28.501   +12 39 47.98  4.5743 5.1021 116.0 21.4 2.16  78
2019 06 14 18  21 06 27.888   +12 40 05.19  4.5738 5.1021 116.1 21.4 2.19  78
2019 06 14 19  21 06 27.274   +12 40 22.39  4.5733 5.1021 116.1 21.4 2.22  78
2019 06 14 20  21 06 26.658   +12 40 39.58  4.5728 5.1021 116.1 21.4 2.25  78
2019 06 14 21  21 06 26.041   +12 40 56.77  4.5723 5.1021 116.2 21.4 2.28  78
2019 06 14 22  21 06 25.423   +12 41 13.94  4.5718 5.1021 116.2 21.4 2.31  78
2019 06 14 23  21 06 24.804   +12 41 31.11  4.5713 5.1020 116.2 21.4 2.34  78
2019 06 15 00  21 06 24.183   +12 41 48.27  4.5708 5.1020 116.3 21.4 2.37  78
2019 06 15 01  21 06 23.561   +12 42 05.43  4.5703 5.1020 116.3 21.4 2.40  78
2019 06 15 02  21 06 22.938   +12 42 22.58  4.5698 5.1020 116.3 21.4 2.43  78
2019 06 15 03  21 06 22.313   +12 42 39.71  4.5693 5.1020 116.4 21.4 2.46  78
2019 06 15 04  21 06 21.688   +12 42 56.85  4.5688 5.1020 116.4 21.4 2.49  78
2019 06 15 05  21 06 21.061   +12 43 13.97  4.5683 5.1019 116.4 21.4 2.52  78
2019 06 15 06  21 06 20.432   +12 43 31.09  4.5678 5.1019 116.5 21.4 2.55  78
2019 06 15 07  21 06 19.803   +12 43 48.20  4.5673 5.1019 116.5 21.4 2.58  78
2019 06 15 08  21 06 19.172   +12 44 05.30  4.5668 5.1019 116.5 21.4 2.61  78
2019 06 15 09  21 06 18.540   +12 44 22.39  4.5663 5.1019 116.6 21.4 2.64  78
2019 06 15 10  21 06 17.906   +12 44 39.48  4.5658 5.1019 116.6 21.4 2.67  78
2019 06 15 11  21 06 17.271   +12 44 56.56  4.5653 5.1018 116.6 21.4 2.70  78
2019 06 15 12  21 06 16.635   +12 45 13.63  4.5648 5.1018 116.7 21.4 2.73  78
2019 06 15 13  21 06 15.998   +12 45 30.69  4.5643 5.1018 116.7 21.4 2.77  78
2019 06 15 14  21 06 15.360   +12 45 47.75  4.5638 5.1018 116.7 21.4 2.80  78
2019 06 15 15  21 06 14.720   +12 46 04.79  4.5633 5.1018 116.8 21.4 2.83  78
2019 06 15 16  21 06 14.079   +12 46 21.83  4.5628 5.1018 116.8 21.4 2.86  78
2019 06 15 17  21 06 13.436   +12 46 38.87  4.5623 5.1017 116.8 21.4 2.89  78
2019 06 15 18  21 06 12.793   +12 46 55.89  4.5618 5.1017 116.9 21.4 2.93  78
2019 06 15 19  21 06 12.148   +12 47 12.91  4.5613 5.1017 116.9 21.4 2.96  78
2019 06 15 20  21 06 11.501   +12 47 29.92  4.5608 5.1017 116.9 21.4 2.99  78
2019 06 15 21  21 06 10.854   +12 47 46.92  4.5603 5.1017 117.0 21.4 3.03  78
2019 06 15 22  21 06 10.205   +12 48 03.91  4.5598 5.1017 117.0 21.4 3.06  78
2019 06 15 23  21 06 09.555   +12 48 20.90  4.5593 5.1016 117.0 21.4 3.09  78
2019 06 16 00  21 06 08.904   +12 48 37.88  4.5588 5.1016 117.1 21.4 3.13  78
2019 06 16 01  21 06 08.251   +12 48 54.85  4.5583 5.1016 117.1 21.4 3.16  78